JST518 YMML-YMLT

Flight info

Callsign JST518
Flight time 0h 45m
Altitude 37000
Route SUNTI H169 IRSOM W105 LT
Aircraft A321/M-SDE3FGHIRWY/LB1

Departure

Time 2026-05-05 23:53
Airport Melbourne Airport (YMML)

Arrival

Time 2026-05-06 00:38
Airport Launceston Airport (YMLT)
Time Latitude Longitude Altitude Speed Heading
2026-05-05 23:44 -37.67195 144.84666 388 ft 3 kts 262°
2026-05-05 23:44 -37.67198 144.84636 387 ft 3 kts 262°
2026-05-05 23:44 -37.67202 144.84608 387 ft 2 kts 262°
2026-05-05 23:45 -37.67202 144.84607 387 ft 0 kts 262°
2026-05-05 23:47 -37.67202 144.84604 387 ft 1 kts 262°
2026-05-05 23:47 -37.67205 144.84578 386 ft 5 kts 262°
2026-05-05 23:48 -37.67210 144.84521 385 ft 8 kts 269°
2026-05-05 23:48 -37.67199 144.84438 384 ft 11 kts 276°
2026-05-05 23:48 -37.67209 144.84330 383 ft 14 kts 251°
2026-05-05 23:48 -37.67300 144.84284 380 ft 17 kts 171°
2026-05-05 23:49 -37.67425 144.84310 377 ft 20 kts 171°
2026-05-05 23:49 -37.67554 144.84334 374 ft 15 kts 172°
2026-05-05 23:49 -37.67648 144.84352 371 ft 15 kts 170°
2026-05-05 23:49 -37.67767 144.84368 368 ft 20 kts 187°
2026-05-05 23:50 -37.67855 144.84251 360 ft 13 kts 254°
2026-05-05 23:50 -37.67869 144.84150 363 ft 8 kts 261°
2026-05-05 23:50 -37.67870 144.84143 361 ft 0 kts 261°
2026-05-05 23:51 -37.67872 144.84125 365 ft 4 kts 261°
2026-05-05 23:51 -37.67879 144.84070 359 ft 9 kts 261°
2026-05-05 23:51 -37.67887 144.83992 355 ft 8 kts 277°
2026-05-05 23:52 -37.67846 144.83964 362 ft 7 kts 348°
2026-05-05 23:52 -37.67690 144.83934 363 ft 55 kts 352°
2026-05-05 23:52 -37.67065 144.83819 384 ft 123 kts 352°
2026-05-05 23:52 -37.66101 144.83638 795 ft 140 kts 352°
2026-05-05 23:53 -37.65142 144.83478 1573 ft 139 kts 349°
2026-05-05 23:53 -37.64174 144.83320 2272 ft 147 kts 347°
2026-05-05 23:53 -37.63093 144.83097 2779 ft 169 kts 346°
2026-05-05 23:53 -37.61871 144.82840 3238 ft 192 kts 346°
2026-05-05 23:54 -37.60475 144.82551 3686 ft 215 kts 348°
2026-05-05 23:54 -37.58888 144.82516 4102 ft 245 kts 10°
2026-05-05 23:54 -37.57205 144.83384 4611 ft 268 kts 24°
2026-05-05 23:54 -37.55510 144.84425 5439 ft 274 kts 24°
2026-05-05 23:55 -37.53785 144.85498 6273 ft 279 kts 24°
2026-05-05 23:55 -37.52030 144.86590 7087 ft 283 kts 23°
2026-05-05 23:55 -37.50277 144.87676 7926 ft 285 kts 23°
2026-05-05 23:55 -37.48490 144.88785 8801 ft 288 kts 24°
2026-05-05 23:56 -37.46887 144.90336 9589 ft 298 kts 47°
2026-05-05 23:56 -37.45907 144.92665 10375 ft 308 kts 73°
2026-05-05 23:56 -37.45781 144.95367 11092 ft 316 kts 99°
2026-05-05 23:56 -37.46582 144.97944 11817 ft 321 kts 126°
2026-05-05 23:57 -37.48206 144.99930 12141 ft 337 kts 153°
2026-05-05 23:57 -37.50475 145.00805 12341 ft 351 kts 179°
2026-05-05 23:57 -37.52989 145.00943 12482 ft 373 kts 182°
2026-05-05 23:57 -37.55641 145.01008 12817 ft 387 kts 182°
2026-05-05 23:58 -37.58358 145.01056 13434 ft 393 kts 182°
2026-05-05 23:58 -37.61115 145.01113 14095 ft 399 kts 182°
2026-05-05 23:58 -37.63912 145.01190 14669 ft 405 kts 181°
2026-05-05 23:58 -37.66745 145.01284 15270 ft 410 kts 181°
2026-05-05 23:59 -37.69606 145.01390 15878 ft 415 kts 181°
2026-05-05 23:59 -37.72504 145.01397 16490 ft 418 kts 187°
2026-05-05 23:59 -37.75404 145.01012 17075 ft 421 kts 189°
2026-05-05 23:59 -37.78335 145.00579 17630 ft 428 kts 189°
2026-05-06 00:00 -37.80295 145.00283 18072 ft 430 kts 190°
2026-05-06 00:00 -37.84298 144.99674 18844 ft 435 kts 190°
2026-05-06 00:00 -37.86291 144.99370 19194 ft 438 kts 190°
2026-05-06 00:00 -37.89328 144.98910 19731 ft 441 kts 190°
2026-05-06 00:01 -37.92385 144.98452 20272 ft 444 kts 190°
2026-05-06 00:01 -37.95479 144.98152 20800 ft 449 kts 183°
2026-05-06 00:01 -37.98615 144.98472 21315 ft 456 kts 173°
2026-05-06 00:01 -38.01713 144.99452 21798 ft 462 kts 163°
2026-05-06 00:02 -38.04758 145.00805 22278 ft 465 kts 162°
2026-05-06 00:02 -38.07821 145.02166 22716 ft 469 kts 162°
2026-05-06 00:02 -38.10914 145.03537 23193 ft 472 kts 162°
2026-05-06 00:02 -38.14028 145.04917 23660 ft 475 kts 162°
2026-05-06 00:03 -38.17163 145.06306 24067 ft 479 kts 162°
2026-05-06 00:03 -38.20315 145.07706 24463 ft 481 kts 162°
2026-05-06 00:03 -38.23486 145.09120 24851 ft 484 kts 162°
2026-05-06 00:03 -38.26680 145.10547 25239 ft 487 kts 162°
2026-05-06 00:04 -38.29880 145.11977 25625 ft 490 kts 162°
2026-05-06 00:04 -38.33106 145.13416 25998 ft 492 kts 162°
2026-05-06 00:04 -38.36348 145.14863 26369 ft 495 kts 162°
2026-05-06 00:04 -38.39605 145.16323 26736 ft 497 kts 162°
2026-05-06 00:05 -38.46172 145.19274 27506 ft 503 kts 162°
2026-05-06 00:05 -38.49480 145.20762 27877 ft 505 kts 162°
2026-05-06 00:05 -38.52795 145.22253 28281 ft 506 kts 163°
2026-05-06 00:06 -38.56125 145.23733 28789 ft 505 kts 163°
2026-05-06 00:06 -38.59435 145.25189 29318 ft 504 kts 163°
2026-05-06 00:06 -38.62747 145.26635 29819 ft 502 kts 163°
2026-05-06 00:06 -38.66053 145.28075 30309 ft 501 kts 163°
2026-05-06 00:07 -38.69355 145.29515 30731 ft 501 kts 163°
2026-05-06 00:07 -38.72645 145.30960 31132 ft 501 kts 162°
2026-05-06 00:07 -38.75853 145.32752 31513 ft 502 kts 156°
2026-05-06 00:07 -38.79005 145.34687 31922 ft 502 kts 156°
2026-05-06 00:08 -38.82147 145.36637 32333 ft 501 kts 156°
2026-05-06 00:08 -38.85279 145.38590 32736 ft 501 kts 156°
2026-05-06 00:08 -38.88412 145.40546 33140 ft 500 kts 156°
2026-05-06 00:08 -38.91542 145.42497 33556 ft 500 kts 156°
2026-05-06 00:09 -38.94670 145.44447 33952 ft 499 kts 156°
2026-05-06 00:09 -38.97796 145.46391 34318 ft 499 kts 157°
2026-05-06 00:09 -39.00920 145.48333 34650 ft 498 kts 157°
2026-05-06 00:09 -39.04040 145.50275 34972 ft 498 kts 157°
2026-05-06 00:10 -39.07158 145.52219 35296 ft 498 kts 157°
2026-05-06 00:10 -39.10274 145.54163 35611 ft 498 kts 157°
2026-05-06 00:10 -39.13390 145.56106 35934 ft 497 kts 157°
2026-05-06 00:10 -39.16505 145.58051 36257 ft 498 kts 157°
2026-05-06 00:11 -39.19620 145.60000 36558 ft 498 kts 157°
2026-05-06 00:11 -39.22732 145.61959 36856 ft 498 kts 157°
2026-05-06 00:11 -39.25843 145.63921 37080 ft 498 kts 157°
2026-05-06 00:12 -39.32080 145.67850 37131 ft 500 kts 157°
2026-05-06 00:12 -39.38338 145.71765 37118 ft 500 kts 157°
2026-05-06 00:13 -39.44589 145.75703 37119 ft 500 kts 157°
2026-05-06 00:13 -39.50794 145.79638 37108 ft 500 kts 157°
2026-05-06 00:14 -39.57042 145.83596 37114 ft 500 kts 157°
2026-05-06 00:14 -39.63295 145.87567 37125 ft 501 kts 157°
2026-05-06 00:15 -39.69548 145.91550 37121 ft 501 kts 157°
2026-05-06 00:15 -39.75811 145.95545 37130 ft 502 kts 157°
2026-05-06 00:16 -39.82079 145.99537 37112 ft 502 kts 157°
2026-05-06 00:16 -39.88347 146.03548 37137 ft 502 kts 157°
2026-05-06 00:17 -39.94618 146.07574 37107 ft 502 kts 157°
2026-05-06 00:17 -40.00892 146.11601 37104 ft 503 kts 157°
2026-05-06 00:18 -40.07161 146.15636 37107 ft 503 kts 157°
2026-05-06 00:18 -40.13437 146.19684 37124 ft 503 kts 157°
2026-05-06 00:19 -40.19714 146.23751 37108 ft 504 kts 157°
2026-05-06 00:19 -40.26000 146.27814 37103 ft 504 kts 157°
2026-05-06 00:20 -40.32283 146.31898 37094 ft 504 kts 157°
2026-05-06 00:20 -40.38526 146.35964 37106 ft 504 kts 157°
2026-05-06 00:21 -40.44852 146.40082 37090 ft 505 kts 157°
2026-05-06 00:21 -40.51144 146.44188 37006 ft 505 kts 156°
2026-05-06 00:21 -40.54271 146.46231 35926 ft 515 kts 156°
2026-05-06 00:22 -40.57490 146.48333 35218 ft 515 kts 156°
2026-05-06 00:22 -40.60709 146.50443 34260 ft 521 kts 156°
2026-05-06 00:22 -40.63950 146.52577 33548 ft 517 kts 155°
2026-05-06 00:22 -40.67159 146.54699 32276 ft 517 kts 155°
2026-05-06 00:23 -40.70379 146.56829 31138 ft 516 kts 155°
2026-05-06 00:23 -40.73575 146.58937 30158 ft 512 kts 154°
2026-05-06 00:23 -40.76758 146.61033 28936 ft 510 kts 155°
2026-05-06 00:23 -40.79919 146.63112 27814 ft 505 kts 155°
2026-05-06 00:24 -40.83061 146.65182 26641 ft 507 kts 155°
2026-05-06 00:24 -40.86244 146.67283 25335 ft 518 kts 155°
2026-05-06 00:24 -40.89497 146.69436 24055 ft 527 kts 155°
2026-05-06 00:24 -40.92785 146.71622 22851 ft 530 kts 155°
2026-05-06 00:25 -40.96059 146.73802 22116 ft 522 kts 155°
2026-05-06 00:25 -40.99284 146.75947 20928 ft 514 kts 155°
2026-05-06 00:25 -41.02435 146.78043 19902 ft 499 kts 155°
2026-05-06 00:25 -41.05492 146.80081 19001 ft 485 kts 155°
2026-05-06 00:26 -41.08464 146.82068 18070 ft 473 kts 155°
2026-05-06 00:26 -41.11367 146.84009 17115 ft 462 kts 156°
2026-05-06 00:26 -41.14202 146.85902 16265 ft 451 kts 156°
2026-05-06 00:26 -41.16978 146.87755 15408 ft 442 kts 156°
2026-05-06 00:27 -41.19697 146.89570 14591 ft 433 kts 156°
2026-05-06 00:27 -41.22369 146.91353 13826 ft 428 kts 156°
2026-05-06 00:27 -41.25017 146.93119 13025 ft 425 kts 157°
2026-05-06 00:27 -41.27650 146.94877 12332 ft 422 kts 156°
2026-05-06 00:28 -41.30261 146.96628 11608 ft 420 kts 156°
2026-05-06 00:28 -41.32849 146.98367 11160 ft 409 kts 156°
2026-05-06 00:28 -41.35322 147.00044 11050 ft 390 kts 157°
2026-05-06 00:28 -41.37686 147.01651 10923 ft 374 kts 157°
2026-05-06 00:29 -41.39960 147.03193 10794 ft 360 kts 157°
2026-05-06 00:29 -41.42153 147.04674 10672 ft 347 kts 158°
2026-05-06 00:29 -41.44269 147.06101 10525 ft 336 kts 158°
2026-05-06 00:29 -41.46337 147.07491 10263 ft 331 kts 158°
2026-05-06 00:30 -41.48370 147.08856 10175 ft 326 kts 158°
2026-05-06 00:30 -41.50401 147.10219 10091 ft 327 kts 158°
2026-05-06 00:30 -41.52433 147.11586 9819 ft 329 kts 158°
2026-05-06 00:30 -41.54510 147.12983 9161 ft 338 kts 158°
2026-05-06 00:31 -41.56620 147.14410 8609 ft 341 kts 158°
2026-05-06 00:31 -41.58735 147.15848 8062 ft 342 kts 158°
2026-05-06 00:31 -41.60864 147.17299 7510 ft 344 kts 158°
2026-05-06 00:31 -41.63001 147.18760 6940 ft 346 kts 157°
2026-05-06 00:32 -41.65142 147.20225 6372 ft 344 kts 157°
2026-05-06 00:32 -41.67239 147.21661 5812 ft 334 kts 157°
2026-05-06 00:32 -41.69205 147.23231 5289 ft 328 kts 142°
2026-05-06 00:32 -41.70551 147.25575 4763 ft 313 kts 112°
2026-05-06 00:33 -41.70959 147.28319 4271 ft 293 kts 82°
2026-05-06 00:33 -41.70441 147.30812 3730 ft 270 kts 48°
2026-05-06 00:33 -41.69113 147.32229 3578 ft 228 kts
2026-05-06 00:33 -41.67708 147.32181 3442 ft 188 kts 332°
2026-05-06 00:34 -41.66628 147.31427 3254 ft 166 kts 326°
2026-05-06 00:34 -41.65668 147.30643 3022 ft 157 kts 324°
2026-05-06 00:34 -41.64772 147.29887 2816 ft 147 kts 324°
2026-05-06 00:34 -41.63949 147.29186 2650 ft 135 kts 324°
2026-05-06 00:35 -41.63167 147.28516 2455 ft 133 kts 324°
2026-05-06 00:35 -41.62410 147.27868 2274 ft 127 kts 324°
2026-05-06 00:35 -41.61670 147.27233 2096 ft 126 kts 324°
2026-05-06 00:35 -41.60931 147.26599 1913 ft 127 kts 325°
2026-05-06 00:36 -41.60194 147.25967 1750 ft 126 kts 326°
2026-05-06 00:36 -41.59458 147.25335 1581 ft 125 kts 326°
2026-05-06 00:36 -41.58711 147.24698 1402 ft 128 kts 327°
2026-05-06 00:36 -41.57957 147.24067 1233 ft 127 kts 327°
2026-05-06 00:37 -41.57209 147.23427 1078 ft 129 kts 327°
2026-05-06 00:37 -41.56461 147.22790 933 ft 126 kts 328°
2026-05-06 00:37 -41.55727 147.22147 778 ft 129 kts 327°
2026-05-06 00:37 -41.54988 147.21513 613 ft 119 kts 328°
2026-05-06 00:38 -41.54438 147.21044 595 ft 43 kts 327°
2026-05-06 00:38 -41.54292 147.20887 592 ft 22 kts 281°
2026-05-06 00:38 -41.54314 147.20820 585 ft 5 kts 228°
2026-05-06 00:38 -41.54322 147.20807 585 ft 0 kts 228°
2026-05-06 00:39 -41.54325 147.20802 584 ft 2 kts 236°
2026-05-06 00:39 -41.54323 147.20770 584 ft 3 kts 292°
2026-05-06 00:40 -41.54309 147.20748 584 ft 5 kts 314°
2026-05-06 00:40 -41.54287 147.20704 584 ft 6 kts 296°
2026-05-06 00:40 -41.54274 147.20666 584 ft 3 kts 294°
2026-05-06 00:40 -41.54264 147.20639 583 ft 1 kts 294°
2026-05-06 00:41 -41.54264 147.20637 583 ft 0 kts 294°